Find Starlink 33535

NORAD ID: 63417 Int'l Des: 2025-065 Owner: SPXS Country: US Constellation: starlink operational
LEOCIRCULAR

現在のビュー

3D地球を読み込み中...

About Starlink 33535

Starlink 33535 (NORAD 63417) is a starlink constellation satellite (v2 mini) launched Mar 31, 2025 by SPXS of US. It operates in LEO, CIRCULAR orbit with a mass of 575.00 kg.

次回通過

Passes for default location (London). Set your location on the main map for personalized predictions.

高度履歴

Loading altitude history...

軌道要素

1 63417U 25065U 26263.23627684 .00011567 00000-0 42904-3 0 9998
2 63417 43.0035 88.2817 0002018 260.5229 99.5394 15.27591015 82598
Epoch: Sep 20, 2026 • Age: 20 hours

現在のステータス

高度 493.5 km
遠地点 / 近地点 N/A
速度 7.62 km/s
衛星直下点 -39.48°S, 58.65°W
打ち上げ日 Mar 31, 2025
運用期間 1.4 years
タイプ internet

技術仕様

分類 Payload
質量 575.00 kg
乾燥質量 530.00 kg
長さ 0.30 m
スパン 29.00 m
形状 ? Box + pan
製造者 SPXS
バスタイプ Starlink V2MO
フェーズステータス In Orbit
所有者/国 SPXS/US

Most Searched